Roseau, MN

10:44 AM CDT on May 24, 2017 (GMT -0500)
Roseau Municipal-Billberg

Weather History for KROX - October, 2013

Change the Weather History Date:

Saturday, October 12, 2013

  Actual Average Record
Temperature  
Mean Temperature 50 °F -  
Max Temperature 59 °F 52 °F 78 °F (1956)
Min Temperature 39 °F 30 °F 16 °F (1990)
Degree Days  
Heating Degree Days 15    
Moisture  
Dew Point 43 °F    
Average Humidity 81    
Maximum Humidity 87    
Minimum Humidity 71    
Precipitation  
Precipitation 0.05 in - - ()
Sea Level Pressure  
Sea Level Pressure 29.68 in    
Wind  
Wind Speed 18 mph (WSW)    
Max Wind Speed 25 mph    
Max Gust Speed 37 mph    
Visibility 8 miles    
Events Rain    
Averages and records for this station are not official NWS values.
T = Trace of Precipitation, MM = Missing Value Source: NWS Daily Summary

Daily Weather History Graph

Daily Weather History Graph

Search for Another Location

Airport or City:

Trip Planner

Search our weather history database for the weather conditions in past years. The results will help you decide how hot, cold, wet, or windy it might be!

Date:

Astronomy

Oct. 12, 2013 Rise Set
Actual Time 7:39 AM CDT 6:38 PM CDT
Civil Twilight 7:07 AM CDT 7:10 PM CDT
Nautical Twilight 6:30 AM CDT 7:46 PM CDT
Astronomical Twilight 5:54 AM CDT 8:23 PM CDT
Moon 3:17 PM CDT (10/12) 12:12 AM CDT (10/12)
Length of Visible Light 12h 02m
Length of Day
10h 59m
First Quarter, 59% of the Moon is Illuminated
Oct 12
First Quarter
Oct 18
Full
Oct 26
Last Quarter
Nov 3
New
Nov 9
First Quarter

Hourly Weather History & Observations

Time (CDT) Temp. Windchill Dew Point Humidity Pressure Visibility Wind Dir Wind Speed Gust Speed Precip Events Conditions
12:14 AM 59.0 °F - 53.6 °F 82% 29.37 in 10.0 mi SSE 21.9 mph 29.9 mph 0.01 in   Mostly Cloudy
12:34 AM 57.2 °F - 50.0 °F 77% 29.37 in 10.0 mi South 25.3 mph 31.1 mph 0.01 in   Scattered Clouds
12:54 AM 57.2 °F - 50.0 °F 77% 29.38 in 10.0 mi South 25.3 mph 33.4 mph 0.01 in   Mostly Cloudy
1:14 AM 55.4 °F - 48.2 °F 77% 29.39 in 10.0 mi South 21.9 mph 31.1 mph N/A   Mostly Cloudy
1:34 AM 55.4 °F - 48.2 °F 77% 29.39 in 10.0 mi South 21.9 mph 33.4 mph N/A   Overcast
1:54 AM 55.4 °F - 48.2 °F 77% 29.40 in 10.0 mi South 24.2 mph 29.9 mph N/A   Overcast
2:14 AM 53.6 °F - 48.2 °F 82% 29.40 in 10.0 mi South 23.0 mph 31.1 mph N/A   Overcast
2:34 AM 53.6 °F - 48.2 °F 82% 29.40 in 10.0 mi South 21.9 mph 32.2 mph N/A   Overcast
2:54 AM 53.6 °F - 46.4 °F 77% 29.40 in 10.0 mi South 25.3 mph 36.8 mph N/A   Overcast
3:14 AM 53.6 °F - 46.4 °F 77% 29.41 in 10.0 mi South 20.7 mph 27.6 mph N/A   Overcast
3:34 AM 51.8 °F - 46.4 °F 82% 29.40 in 10.0 mi South 23.0 mph 31.1 mph N/A   Overcast
3:54 AM 51.8 °F - 46.4 °F 82% 29.41 in 10.0 mi South 19.6 mph 28.8 mph N/A   Overcast
4:14 AM 51.8 °F - 46.4 °F 82% 29.41 in 10.0 mi South 20.7 mph 28.8 mph N/A   Overcast
4:34 AM 51.8 °F - 46.4 °F 82% 29.42 in 10.0 mi South 20.7 mph 29.9 mph N/A   Overcast
4:54 AM 51.8 °F - 46.4 °F 82% 29.42 in 10.0 mi South 23.0 mph 28.8 mph N/A   Overcast
5:14 AM 51.8 °F - 46.4 °F 82% 29.43 in 10.0 mi South 20.7 mph 28.8 mph N/A   Overcast
5:34 AM 51.8 °F - 46.4 °F 82% 29.43 in 10.0 mi South 19.6 mph 27.6 mph N/A   Overcast
5:55 AM 51.8 °F - 46.4 °F 82% 29.44 in 10.0 mi South 21.9 mph 27.6 mph N/A   Overcast
6:14 AM 51.8 °F - 46.4 °F 82% 29.45 in 10.0 mi South 19.6 mph 29.9 mph N/A   Overcast
6:34 AM 51.8 °F - 46.4 °F 82% 29.45 in 10.0 mi South 20.7 mph 26.5 mph N/A   Overcast
6:55 AM 51.8 °F - 46.4 °F 82% 29.46 in 10.0 mi South 17.3 mph - N/A   Overcast
7:14 AM 51.8 °F - 46.4 °F 82% 29.46 in 10.0 mi South 16.1 mph - N/A   Overcast
7:34 AM 51.8 °F - 46.4 °F 82% 29.47 in 10.0 mi SSW 16.1 mph - N/A   Overcast
7:55 AM 51.8 °F - 46.4 °F 82% 29.48 in 7.0 mi SSW 11.5 mph - N/A   Overcast
8:14 AM 51.8 °F - 46.4 °F 82% 29.49 in 2.0 mi SSW 12.7 mph - N/A   Haze
8:34 AM 51.8 °F - 46.4 °F 82% 29.51 in 2.5 mi WSW 8.1 mph - N/A   Light Drizzle
8:54 AM 50.0 °F - 44.6 °F 82% 29.52 in 2.5 mi West 10.4 mph 18.4 mph N/A   Haze
9:14 AM 50.0 °F - 44.6 °F 82% 29.53 in 2.0 mi West 10.4 mph - N/A   Haze
9:34 AM 50.0 °F - 44.6 °F 82% 29.55 in 3.0 mi West 12.7 mph 17.3 mph N/A   Haze
9:54 AM 50.0 °F - 44.6 °F 82% 29.56 in 1.5 mi West 11.5 mph 21.9 mph N/A   Haze
10:14 AM 48.2 °F - 44.6 °F 87% 29.58 in 2.5 mi West 11.5 mph 16.1 mph N/A   Haze
10:34 AM 48.2 °F - 44.6 °F 87% 29.59 in 2.5 mi West 13.8 mph 18.4 mph N/A   Haze
10:54 AM 48.2 °F - 44.6 °F 87% 29.60 in 2.0 mi West 12.7 mph 18.4 mph N/A   Haze
11:14 AM 48.2 °F - 44.6 °F 87% 29.62 in 2.0 mi West 12.7 mph 19.6 mph N/A   Overcast
11:34 AM 48.2 °F - 42.8 °F 82% 29.62 in 5.0 mi WNW 15.0 mph 21.9 mph N/A   Haze
11:54 AM 48.2 °F - 42.8 °F 82% 29.64 in 5.0 mi WNW 13.8 mph - N/A   Light Drizzle
12:14 PM 48.2 °F - 42.8 °F 82% 29.65 in 5.0 mi WNW 15.0 mph 24.2 mph N/A   Haze
12:34 PM 48.2 °F - 42.8 °F 82% 29.67 in 4.0 mi West 15.0 mph 21.9 mph N/A   Haze
12:54 PM 46.4 °F 40.4 °F 42.8 °F 87% 29.69 in 3.0 mi West 13.8 mph 19.6 mph N/A Rain Light Rain
1:14 PM 46.4 °F 41.1 °F 42.8 °F 87% 29.71 in 5.0 mi West 11.5 mph 17.3 mph 0.01 in Rain Light Rain
1:34 PM 46.4 °F 41.9 °F 42.8 °F 87% 29.72 in 2.5 mi West 9.2 mph 23.0 mph 0.01 in Rain Light Rain
1:54 PM 46.4 °F 41.1 °F 42.8 °F 87% 29.73 in 3.0 mi West 11.5 mph 18.4 mph 0.02 in Rain Light Rain
2:14 PM 46.4 °F 40.4 °F 42.8 °F 87% 29.74 in 7.0 mi WNW 13.8 mph 17.3 mph N/A Rain Light Rain
2:34 PM 46.4 °F 40.4 °F 42.8 °F 87% 29.75 in 10.0 mi WNW 13.8 mph 19.6 mph 0.01 in   Overcast
2:54 PM 46.4 °F 40.7 °F 42.8 °F 87% 29.77 in 10.0 mi WNW 12.7 mph 18.4 mph 0.01 in   Overcast
3:14 PM 46.4 °F 40.4 °F 41.0 °F 81% 29.79 in 10.0 mi WNW 13.8 mph 21.9 mph 0.01 in   Overcast
3:34 PM 46.4 °F 40.4 °F 42.8 °F 87% 29.80 in 10.0 mi WNW 13.8 mph - 0.01 in   Overcast
3:54 PM 46.4 °F 40.7 °F 41.0 °F 81% 29.81 in 10.0 mi WNW 12.7 mph 18.4 mph 0.01 in Rain Light Rain
4:15 PM 46.4 °F 39.8 °F 42.8 °F 87% 29.83 in 10.0 mi WNW 16.1 mph 19.6 mph N/A   Overcast
4:34 PM 46.4 °F 40.7 °F 41.0 °F 81% 29.84 in 10.0 mi WNW 12.7 mph 19.6 mph N/A   Overcast
4:54 PM 46.4 °F 40.4 °F 42.8 °F 87% 29.86 in 10.0 mi WNW 13.8 mph 20.7 mph N/A   Overcast
5:14 PM 48.2 °F - 42.8 °F 82% 29.88 in 10.0 mi WNW 12.7 mph 19.6 mph N/A   Overcast
5:34 PM 48.2 °F - 42.8 °F 82% 29.89 in 10.0 mi WNW 10.4 mph 17.3 mph N/A   Overcast
5:54 PM 48.2 °F - 41.0 °F 76% 29.90 in 10.0 mi WNW 12.7 mph 21.9 mph N/A   Overcast
6:15 PM 48.2 °F - 39.2 °F 71% 29.92 in 10.0 mi WNW 11.5 mph - N/A   Overcast
6:34 PM 48.2 °F - 39.2 °F 71% 29.93 in 10.0 mi WNW 10.4 mph - N/A   Overcast
6:54 PM 48.2 °F - 39.2 °F 71% 29.94 in 10.0 mi WNW 12.7 mph 17.3 mph N/A   Overcast
7:14 PM 48.2 °F - 39.2 °F 71% 29.96 in 10.0 mi WNW 11.5 mph 21.9 mph N/A   Overcast
7:34 PM 46.4 °F 40.7 °F 39.2 °F 76% 29.97 in 10.0 mi WNW 12.7 mph - N/A   Overcast
7:54 PM 46.4 °F 40.7 °F 39.2 °F 76% 29.98 in 10.0 mi NW 12.7 mph - N/A   Overcast
8:14 PM 46.4 °F 41.5 °F 39.2 °F 76% 29.99 in 10.0 mi WNW 10.4 mph - N/A   Overcast
8:34 PM 46.4 °F 41.5 °F 37.4 °F 71% 30.01 in 10.0 mi NW 10.4 mph - N/A   Mostly Cloudy
8:54 PM 46.4 °F 41.5 °F 37.4 °F 71% 30.02 in 10.0 mi NW 10.4 mph - N/A   Mostly Cloudy
9:14 PM 44.6 °F 38.4 °F 37.4 °F 76% 30.03 in 10.0 mi NW 12.7 mph - N/A   Scattered Clouds
9:34 PM 44.6 °F 40.2 °F 37.4 °F 76% 30.04 in 10.0 mi WNW 8.1 mph - N/A   Clear
9:54 PM 44.6 °F 40.7 °F 37.4 °F 76% 30.05 in 10.0 mi WNW 6.9 mph - N/A   Clear
10:14 PM 42.8 °F 38.0 °F 37.4 °F 81% 30.06 in 10.0 mi West 8.1 mph - N/A   Clear
10:35 PM 42.8 °F 37.5 °F 37.4 °F 81% 30.07 in 10.0 mi WNW 9.2 mph - N/A   Clear
10:54 PM 42.8 °F 37.5 °F 35.6 °F 76% 30.08 in 10.0 mi WNW 9.2 mph - N/A   Clear
11:14 PM 41.0 °F 36.4 °F 35.6 °F 81% 30.10 in 10.0 mi West 6.9 mph - N/A   Clear
11:35 PM 41.0 °F 35.8 °F 35.6 °F 81% 30.11 in 10.0 mi West 8.1 mph - N/A   Clear
11:54 PM 39.2 °F 34.2 °F 33.8 °F 81% 30.11 in 10.0 mi West 6.9 mph - N/A   Clear